Location: Matrei
(47.1333°N, 11.4500°E)
Time: 08:01:52
(UTC+00:00)

Cosmos 2154 Rocket - Pass Details

Date: 07 June 2020
Orbit: 965 x 997 km, 82.9° (Epoch: 07 July)

Event Time Altitude Azimuth Distance (km) Brightness Sun altitude
Exits shadow 01:49:51 15° 209° (SSW) 2,380 5.4 -11.7°
Maximum altitude 01:54:59 54° 284° (WNW) 1,169 4.3 -11.1°
Drops below altitude 10° 02:01:06 10° 1° (N) 2,723 7.2 -10.5°
Sets 02:03:41 0° 6° (N) 3,672 8.1 -10.2°
